Flag for U.S.A. Weather past 2 weeks in Greenville, South Carolina, U.S.A.

Now
73 °F

Light rain. Mostly cloudy.


Feels Like: 71 °F
Forecast: 68 / 81 °F
Wind: 8 mph from Southwest

Location: Greenville Downtown Airport

Current Time: Jul 5, 2015 at 5:57:18 PM

Latest Report: Jul 5, 2015 at 4:53 PM


Visibility: 7 mi

Pressure: 30.06 "Hg

Humidity: 88%

Dew point: 69 °F

Location of GreenvilleLocation

Historic Weather in Greenville — Graph

°F

Greenville temperature yesterday

Maximum temperature yesterday: 83 °F (at 2:53 PM)
Minimum temperature yesterday: 71 °F (at 4:53 AM)
Average temperature yesterday: 76 °F

Past Weeks' High & Low Weather Summary

 TemperatureHumidityPressure
High96 °F (Jun 26, 3:53 PM)91% (Jul 3, 6:53 AM)30.13 "Hg (Jul 3, 6:53 AM)
Low64 °F (Jun 29, 5:53 AM)31% (Jun 26, 3:53 PM)29.79 "Hg (Jun 27, 2:53 PM)
Average79 °F65%29.98 "Hg
* Reported Jun 20 4:53 PM — Jul 5 4:53 PM, Greenville, Weather by CustomWeather, © 2015

Note: Actual official high and low records may vary slightly from our data, if they occured in-between our weather recording intervals... More about our weather records

Advertising

Greenville weather history for previous 24 hours

 ConditionsComfort  
Time TempWeatherWind HumidityBarometerVisibility
4:53 PM
Sun, Jul 5
73 °FLight rain. Mostly cloudy.8 mph88%30.06 "Hg7 mi
3:53 PM82 °FBroken clouds.10 mph53%30.05 "Hg10 mi
2:53 PM84 °FPassing clouds.12 mph49%30.06 "Hg10 mi
1:53 PM81 °FPassing clouds.12 mph58%30.08 "Hg10 mi
12:53 PM81 °FScattered clouds.12 mph56%30.10 "Hg10 mi
12:03 PM80 °FCloudy.14 mph60%30.13 "Hg10 mi
11:53 AM80 °FMostly cloudy.8 mph60%30.10 "Hg10 mi
10:53 AM78 °FPartly sunny.13 mph64%30.10 "Hg10 mi
9:53 AM76 °FPartly sunny.13 mph69%30.11 "Hg10 mi
8:53 AM74 °FPassing clouds.10 mph82%30.11 "Hg10 mi
7:53 AM73 °FLow clouds.8 mph88%30.10 "Hg10 mi
6:53 AM73 °FLow clouds.8 mph88%30.09 "Hg10 mi
5:53 AM73 °FLow clouds.7 mph88%30.07 "Hg10 mi
4:53 AM73 °FPassing clouds.6 mph88%30.05 "Hg10 mi
4:03 AM73 °FPassing clouds.5 mph88%30.08 "Hg10 mi
3:53 AM73 °FPartly cloudy.5 mph88%30.05 "Hg10 mi
3:02 AM73 °FPassing clouds.5 mph88%30.09 "Hg10 mi
2:53 AM73 °FPassing clouds.5 mph88%30.06 "Hg10 mi
1:53 AM74 °FPassing clouds.3 mph82%30.06 "Hg10 mi
12:53 AM75 °FClear.6 mph79%30.07 "Hg10 mi
11:53 PM
Sat, Jul 4
76 °FClear.7 mph74%30.06 "Hg10 mi
10:53 PM77 °FClear.5 mph69%30.06 "Hg10 mi
9:53 PM77 °FClear.7 mph66%30.05 "Hg10 mi
8:53 PM79 °FScattered clouds.5 mph65%30.02 "Hg10 mi
7:53 PM81 °FSunny.9 mph58%30.00 "Hg10 mi
6:53 PM81 °FSunny.12 mph58%30.01 "Hg10 mi
5:53 PM81 °FSunny.9 mph56%30.01 "Hg10 mi
Weather by CustomWeather, © 2015

See weather overviewHow to use our weather pages